Location: Holyhead Bay
(53.3667°N, 4.6667°W)
Time: 06:24:06
(UTC+00:00)

ADEOS Rocket - Pass Details

Date: 20 April 2021
Orbit: 859 x 1306 km, 98.7° (Epoch: 12 May)

Event Time Altitude Azimuth Distance (km) Brightness Sun altitude
Rises 01:24:59 0° 127° (SE) 3,792 5.9 -23.5°
Reaches altitude 10° 01:27:35 10° 119° (ESE) 2,906 5.4 -23.4°
Maximum altitude 01:33:31 36° 56° (NE) 1,735 4.7 -23.1°
Drops below altitude 10° 01:40:00 10° 353° (N) 3,192 6.5 -22.7°
Sets 01:42:59 0° 346° (NNW) 4,211 7.1 -22.6°
